Time,TemperatureF,DewpointF,PressureIn,WindDirection,WindDirectionDegrees,WindSpeedMPH,WindSpeedGustMPH,Humidity,HourlyPrecipIn,Conditions,Clouds,dailyrainin,SolarRadiationWatts/m^2,SoftwareType,DateUTC
2013-03-31 00:00:00,58.1,44.8,30.11,West,277,0.0,1.0,61,0.00,,,0.00,0.0,meteohub,2013-03-31 04:00:00,
2013-03-31 00:02:00,57.9,44.6,30.11,West,277,0.0,1.0,61,0.00,,,0.00,0.0,meteohub,2013-03-31 04:02:00,
2013-03-31 00:06:00,57.7,44.4,30.11,West,277,0.0,1.0,61,0.00,,,0.00,0.0,meteohub,2013-03-31 04:06:00,
2013-03-31 00:07:00,57.7,44.8,30.11,West,277,0.0,1.0,62,0.00,,,0.00,0.0,meteohub,2013-03-31 04:07:00,
2013-03-31 00:12:00,57.4,45.0,30.10,West,277,0.0,1.0,63,0.00,,,0.00,0.0,meteohub,2013-03-31 04:12:00,
2013-03-31 00:17:00,57.0,44.6,30.10,West,277,0.0,1.0,63,0.00,,,0.00,0.0,meteohub,2013-03-31 04:17:00,
2013-03-31 00:22:00,56.7,44.6,30.10,West,277,0.0,0.0,64,0.00,,,0.00,0.0,meteohub,2013-03-31 04:22:00,
2013-03-31 00:28:00,56.3,44.2,30.10,West,277,0.0,0.0,64,0.00,,,0.00,0.0,meteohub,2013-03-31 04:28:00,
2013-03-31 00:34:00,55.9,44.4,30.11,West,277,0.0,0.0,65,0.00,,,0.00,0.0,meteohub,2013-03-31 04:34:00,
2013-03-31 00:40:00,55.8,44.2,30.10,West,277,0.0,0.0,65,0.00,,,0.00,0.0,meteohub,2013-03-31 04:40:00,
2013-03-31 00:47:00,55.6,44.4,30.10,West,277,0.0,0.0,66,0.00,,,0.00,0.0,meteohub,2013-03-31 04:47:00,
2013-03-31 00:52:00,55.2,44.1,30.10,West,277,0.0,0.0,66,0.00,,,0.00,0.0,meteohub,2013-03-31 04:52:00,
2013-03-31 00:59:00,55.0,44.2,30.10,West,277,0.0,0.0,67,0.00,,,0.00,0.0,meteohub,2013-03-31 04:59:00,
2013-03-31 01:05:00,54.9,44.1,30.10,West,277,0.0,0.0,67,0.00,,,0.00,0.0,meteohub,2013-03-31 05:05:00,
2013-03-31 01:12:00,54.7,43.9,30.10,West,277,0.0,0.0,67,0.00,,,0.00,0.0,meteohub,2013-03-31 05:12:00,
2013-03-31 01:17:00,54.7,43.9,30.10,West,277,0.0,0.0,67,0.00,,,0.00,0.0,meteohub,2013-03-31 05:17:00,
2013-03-31 01:22:00,54.3,43.5,30.10,West,277,0.0,0.0,67,0.00,,,0.00,0.0,meteohub,2013-03-31 05:22:00,
2013-03-31 01:27:00,54.3,44.1,30.10,West,277,0.0,0.0,68,0.00,,,0.00,0.0,meteohub,2013-03-31 05:27:00,
2013-03-31 01:32:00,54.1,43.9,30.10,West,277,0.0,0.0,68,0.00,,,0.00,0.0,meteohub,2013-03-31 05:32:00,
2013-03-31 01:37:00,54.0,43.7,30.10,West,277,0.0,0.0,68,0.00,,,0.00,0.0,meteohub,2013-03-31 05:37:00,
2013-03-31 01:43:00,53.8,43.9,30.09,West,277,0.0,0.0,69,0.00,,,0.00,0.0,meteohub,2013-03-31 05:43:00,
2013-03-31 01:49:00,53.6,44.1,30.09,West,277,0.0,0.0,70,0.00,,,0.00,0.0,meteohub,2013-03-31 05:49:00,
2013-03-31 01:55:00,53.4,44.2,30.10,West,277,0.0,0.0,71,0.00,,,0.00,0.0,meteohub,2013-03-31 05:55:00,
2013-03-31 02:02:00,53.2,44.1,30.09,West,277,0.0,0.0,71,0.00,,,0.00,0.0,meteohub,2013-03-31 06:02:00,
2013-03-31 02:07:00,53.1,44.2,30.09,West,277,0.0,0.0,72,0.00,,,0.00,0.0,meteohub,2013-03-31 06:07:00,
2013-03-31 02:12:00,52.9,44.1,30.09,West,277,0.0,0.0,72,0.00,,,0.00,0.0,meteohub,2013-03-31 06:12:00,
2013-03-31 02:17:00,52.7,43.9,30.09,West,277,0.0,0.0,72,0.00,,,0.00,0.0,meteohub,2013-03-31 06:17:00,
2013-03-31 02:23:00,52.5,44.1,30.09,West,277,0.0,0.0,73,0.00,,,0.00,0.0,meteohub,2013-03-31 06:23:00,
2013-03-31 02:30:00,52.5,44.1,30.09,West,277,0.0,0.0,73,0.00,,,0.00,0.0,meteohub,2013-03-31 06:30:00,
2013-03-31 02:36:00,52.5,44.8,30.09,West,277,0.0,0.0,75,0.00,,,0.00,0.0,meteohub,2013-03-31 06:36:00,
2013-03-31 02:42:00,52.5,45.1,30.09,West,277,0.0,0.0,76,0.00,,,0.00,0.0,meteohub,2013-03-31 06:42:00,
2013-03-31 02:47:00,52.5,44.8,30.09,West,277,0.0,0.0,75,0.00,,,0.00,0.0,meteohub,2013-03-31 06:47:00,
2013-03-31 02:55:00,52.3,45.0,30.09,West,277,0.0,0.0,76,0.00,,,0.00,0.0,meteohub,2013-03-31 06:55:00,
2013-03-31 03:01:00,52.3,45.0,30.09,West,277,0.0,0.0,76,0.00,,,0.00,0.0,meteohub,2013-03-31 07:01:00,
2013-03-31 03:07:00,52.3,45.3,30.08,West,277,0.0,0.0,77,0.00,,,0.00,0.0,meteohub,2013-03-31 07:07:00,
2013-03-31 03:13:00,52.3,45.7,30.08,West,277,0.0,0.0,78,0.00,,,0.00,0.0,meteohub,2013-03-31 07:13:00,
2013-03-31 03:20:00,52.3,46.0,30.08,West,277,0.0,0.0,79,0.00,,,0.00,0.0,meteohub,2013-03-31 07:20:00,
2013-03-31 03:26:00,52.5,46.2,30.08,West,277,0.0,0.0,79,0.00,,,0.00,0.0,meteohub,2013-03-31 07:26:00,
2013-03-31 03:32:00,52.3,46.0,30.08,West,277,0.0,0.0,79,0.00,,,0.00,0.0,meteohub,2013-03-31 07:32:00,
2013-03-31 03:37:00,52.3,46.0,30.08,West,277,0.0,0.0,79,0.00,,,0.00,0.0,meteohub,2013-03-31 07:37:00,
2013-03-31 03:42:00,52.5,46.6,30.08,West,277,0.0,0.0,80,0.00,,,0.00,0.0,meteohub,2013-03-31 07:42:00,
2013-03-31 03:48:00,52.3,46.4,30.08,West,277,0.0,0.0,80,0.00,,,0.00,0.0,meteohub,2013-03-31 07:48:00,
2013-03-31 03:54:00,52.5,46.6,30.08,West,277,0.0,0.0,80,0.00,,,0.00,0.0,meteohub,2013-03-31 07:54:00,
2013-03-31 04:00:00,52.5,46.6,30.08,West,277,0.0,0.0,80,0.00,,,0.00,0.0,meteohub,2013-03-31 08:00:00,
2013-03-31 04:07:00,52.5,46.9,30.07,West,277,0.0,0.0,81,0.00,,,0.00,0.0,meteohub,2013-03-31 08:07:00,
2013-03-31 04:13:00,52.7,47.3,30.08,West,277,0.0,0.0,82,0.00,,,0.00,0.0,meteohub,2013-03-31 08:13:00,
2013-03-31 04:19:00,52.9,47.8,30.08,West,277,0.0,0.0,83,0.00,,,0.00,0.0,meteohub,2013-03-31 08:19:00,
2013-03-31 04:25:00,52.9,47.5,30.07,West,277,0.0,0.0,82,0.00,,,0.00,0.0,meteohub,2013-03-31 08:25:00,
2013-03-31 04:32:00,52.9,47.5,30.07,West,277,0.0,0.0,82,0.00,,,0.00,0.0,meteohub,2013-03-31 08:32:00,
2013-03-31 04:37:00,52.9,47.5,30.08,WSW,237,0.0,0.0,82,0.00,,,0.00,0.0,meteohub,2013-03-31 08:37:00,
2013-03-31 04:42:00,52.9,47.3,30.08,SW,229,0.0,0.0,81,0.00,,,0.00,0.0,meteohub,2013-03-31 08:42:00,
2013-03-31 04:47:00,52.9,47.3,30.08,SW,229,0.0,0.0,81,0.00,,,0.00,0.0,meteohub,2013-03-31 08:47:00,
2013-03-31 04:53:00,52.9,47.3,30.08,SW,229,0.0,0.0,81,0.00,,,0.00,0.0,meteohub,2013-03-31 08:53:00,
2013-03-31 05:00:00,52.9,47.3,30.08,SW,229,0.0,0.0,81,0.00,,,0.00,0.0,meteohub,2013-03-31 09:00:00,
2013-03-31 05:06:00,52.9,47.3,30.08,SW,229,0.0,0.0,81,0.00,,,0.00,0.0,meteohub,2013-03-31 09:06:00,
2013-03-31 05:12:00,53.1,47.7,30.08,SW,229,0.0,0.0,82,0.00,,,0.00,0.0,meteohub,2013-03-31 09:12:00,
2013-03-31 05:17:00,53.1,47.7,30.08,SW,229,0.0,0.0,82,0.00,,,0.00,0.0,meteohub,2013-03-31 09:17:00,
2013-03-31 05:22:00,53.1,48.0,30.08,SW,229,0.0,0.0,83,0.00,,,0.00,0.0,meteohub,2013-03-31 09:22:00,
2013-03-31 05:27:00,53.1,48.0,30.08,SW,229,0.0,0.0,83,0.00,,,0.00,0.0,meteohub,2013-03-31 09:27:00,
2013-03-31 05:32:00,53.1,48.0,30.08,SW,229,0.0,0.0,83,0.00,,,0.00,0.0,meteohub,2013-03-31 09:32:00,
2013-03-31 05:37:00,53.1,48.0,30.08,SW,229,0.0,0.0,83,0.00,,,0.00,0.0,meteohub,2013-03-31 09:37:00,
2013-03-31 05:42:00,53.1,48.0,30.09,SW,229,0.0,0.0,83,0.00,,,0.00,0.0,meteohub,2013-03-31 09:42:00,
2013-03-31 05:47:00,53.1,48.4,30.08,SW,229,0.0,0.0,84,0.00,,,0.00,0.0,meteohub,2013-03-31 09:47:00,
2013-03-31 05:52:00,53.1,48.4,30.08,SW,229,0.0,0.0,84,0.00,,,0.00,0.0,meteohub,2013-03-31 09:52:00,
2013-03-31 05:57:00,52.9,48.2,30.09,SW,229,0.0,1.0,84,0.00,,,0.00,0.0,meteohub,2013-03-31 09:57:00,
2013-03-31 06:02:00,52.9,48.2,30.08,SW,229,0.0,1.0,84,0.00,,,0.00,0.0,meteohub,2013-03-31 10:02:00,
2013-03-31 06:08:00,52.7,47.7,30.08,SW,229,0.0,1.0,83,0.00,,,0.00,0.0,meteohub,2013-03-31 10:08:00,
2013-03-31 06:15:00,52.5,47.8,30.08,SW,229,0.0,1.0,84,0.00,,,0.00,0.0,meteohub,2013-03-31 10:15:00,
2013-03-31 06:21:00,52.5,47.8,30.09,SW,229,0.0,1.0,84,0.00,,,0.00,0.0,meteohub,2013-03-31 10:21:00,
2013-03-31 06:27:00,52.5,47.8,30.08,SW,229,0.0,0.0,84,0.00,,,0.00,0.0,meteohub,2013-03-31 10:27:00,
2013-03-31 06:32:00,52.3,47.7,30.09,SW,229,0.0,0.0,84,0.00,,,0.00,0.0,meteohub,2013-03-31 10:32:00,
2013-03-31 06:37:00,52.3,47.7,30.08,SW,229,0.0,0.0,84,0.00,,,0.00,0.0,meteohub,2013-03-31 10:37:00,
2013-03-31 06:43:00,52.2,47.5,30.08,SW,229,0.0,0.0,84,0.00,,,0.00,0.0,meteohub,2013-03-31 10:43:00,
2013-03-31 06:49:00,52.2,47.5,30.09,SW,229,0.0,0.0,84,0.00,,,0.00,0.0,meteohub,2013-03-31 10:49:00,
2013-03-31 06:55:00,52.0,47.3,30.09,SW,229,0.0,1.0,84,0.00,,,0.00,0.0,meteohub,2013-03-31 10:55:00,
2013-03-31 07:01:00,52.0,47.7,30.09,SW,229,0.0,1.0,85,0.00,,,0.00,0.0,meteohub,2013-03-31 11:01:00,
2013-03-31 07:07:00,51.8,47.5,30.09,SW,229,0.0,1.0,85,0.00,,,0.00,0.0,meteohub,2013-03-31 11:07:00,
2013-03-31 07:12:00,51.8,47.5,30.09,South,185,0.0,1.0,85,0.00,,,0.00,0.0,meteohub,2013-03-31 11:12:00,
2013-03-31 07:17:00,51.6,47.3,30.09,South,185,0.0,3.0,85,0.00,,,0.00,0.0,meteohub,2013-03-31 11:17:00,
2013-03-31 07:23:00,51.6,47.5,30.09,South,185,0.0,3.0,86,0.00,,,0.00,0.0,meteohub,2013-03-31 11:23:00,
2013-03-31 07:29:00,51.4,47.5,30.09,South,183,0.0,3.0,86,0.00,,,0.00,9.0,meteohub,2013-03-31 11:29:00,
2013-03-31 07:36:00,51.4,47.5,30.09,South,183,0.0,3.0,86,0.00,,,0.00,14.0,meteohub,2013-03-31 11:36:00,
2013-03-31 07:42:00,51.4,47.5,30.09,South,183,0.0,2.0,86,0.00,,,0.00,18.0,meteohub,2013-03-31 11:42:00,
2013-03-31 07:47:00,51.4,47.5,30.09,SE,138,0.0,2.0,86,0.00,,,0.00,19.0,meteohub,2013-03-31 11:47:00,
2013-03-31 07:52:00,51.4,47.7,30.09,SE,138,0.0,2.0,87,0.00,,,0.00,25.0,meteohub,2013-03-31 11:52:00,
2013-03-31 07:57:00,51.6,47.8,30.09,SE,126,2.0,2.0,87,0.00,,,0.00,33.0,meteohub,2013-03-31 11:57:00,
2013-03-31 08:04:00,51.8,48.0,30.09,SE,140,0.0,4.0,87,0.00,,,0.00,51.0,meteohub,2013-03-31 12:04:00,
2013-03-31 08:10:00,52.2,48.7,30.09,South,191,0.0,4.0,88,0.00,,,0.00,83.0,meteohub,2013-03-31 12:10:00,
2013-03-31 08:16:00,52.5,49.1,30.09,SSE,151,0.0,4.0,88,0.00,,,0.00,65.0,meteohub,2013-03-31 12:16:00,
2013-03-31 08:22:00,53.1,49.8,30.09,SE,142,0.0,4.0,89,0.00,,,0.00,139.0,meteohub,2013-03-31 12:22:00,
2013-03-31 08:27:00,54.3,50.9,30.09,West,270,0.0,4.0,88,0.00,,,0.00,118.0,meteohub,2013-03-31 12:27:00,
2013-03-31 08:35:00,55.6,51.4,30.09,SSW,205,0.0,3.0,86,0.00,,,0.00,86.0,meteohub,2013-03-31 12:35:00,
2013-03-31 08:41:00,55.9,51.4,30.10,SSW,209,0.0,3.0,85,0.00,,,0.00,74.0,meteohub,2013-03-31 12:41:00,
2013-03-31 08:47:00,56.3,52.2,30.10,WSW,248,1.0,3.0,86,0.00,,,0.00,76.0,meteohub,2013-03-31 12:47:00,
2013-03-31 08:52:00,56.5,52.0,30.10,SSW,194,0.0,3.0,85,0.00,,,0.00,63.0,meteohub,2013-03-31 12:52:00,
2013-03-31 08:59:00,56.7,52.5,30.10,SSE,165,0.0,3.0,86,0.00,,,0.00,86.0,meteohub,2013-03-31 12:59:00,
2013-03-31 09:06:00,57.0,52.9,30.10,SSE,166,0.0,3.0,86,0.00,,,0.00,113.0,meteohub,2013-03-31 13:06:00,
2013-03-31 09:12:00,58.3,54.1,30.10,SW,228,0.0,3.0,86,0.00,,,0.00,142.0,meteohub,2013-03-31 13:12:00,
2013-03-31 09:17:00,59.2,54.0,30.10,WSW,252,5.0,5.0,83,0.00,,,0.00,213.0,meteohub,2013-03-31 13:17:00,
2013-03-31 09:24:00,60.6,55.0,30.10,SE,136,3.0,5.0,82,0.00,,,0.00,322.0,meteohub,2013-03-31 13:24:00,
2013-03-31 09:30:00,61.2,54.7,30.10,South,183,1.0,5.0,79,0.00,,,0.00,355.0,meteohub,2013-03-31 13:30:00,
2013-03-31 09:37:00,62.1,55.0,30.09,SE,126,0.0,5.0,78,0.00,,,0.00,276.0,meteohub,2013-03-31 13:37:00,
2013-03-31 09:42:00,63.0,55.2,30.09,West,260,0.0,7.0,76,0.00,,,0.00,339.0,meteohub,2013-03-31 13:42:00,
2013-03-31 09:47:00,63.9,55.8,30.09,West,279,1.0,7.0,75,0.00,,,0.00,316.0,meteohub,2013-03-31 13:47:00,
2013-03-31 09:52:00,64.6,56.5,30.09,West,281,1.0,7.0,75,0.00,,,0.00,234.0,meteohub,2013-03-31 13:52:00,
2013-03-31 09:58:00,65.5,56.7,30.09,WSW,237,1.0,7.0,73,0.00,,,0.00,315.0,meteohub,2013-03-31 13:58:00,
2013-03-31 10:04:00,66.4,56.7,30.09,WSW,240,2.0,7.0,71,0.00,,,0.00,425.0,meteohub,2013-03-31 14:04:00,
2013-03-31 10:11:00,66.7,56.7,30.09,WNW,294,1.0,7.0,70,0.00,,,0.00,311.0,meteohub,2013-03-31 14:11:00,
2013-03-31 10:17:00,67.3,56.8,30.09,West,273,1.0,7.0,69,0.00,,,0.00,346.0,meteohub,2013-03-31 14:17:00,
2013-03-31 10:22:00,67.8,56.8,30.09,SW,236,2.0,7.0,68,0.00,,,0.00,461.0,meteohub,2013-03-31 14:22:00,
2013-03-31 10:30:00,68.5,57.2,30.09,South,175,2.0,12.0,67,0.00,,,0.00,418.0,meteohub,2013-03-31 14:30:00,
2013-03-31 10:36:00,69.3,57.4,30.09,West,266,2.0,12.0,66,0.00,,,0.00,336.0,meteohub,2013-03-31 14:36:00,
2013-03-31 10:42:00,69.4,56.7,30.09,SW,219,1.0,10.0,64,0.00,,,0.00,399.0,meteohub,2013-03-31 14:42:00,
2013-03-31 10:47:00,70.0,56.8,30.08,ESE,111,4.0,10.0,63,0.00,,,0.00,339.0,meteohub,2013-03-31 14:47:00,
2013-03-31 10:54:00,70.5,56.8,30.08,SSW,212,0.0,10.0,62,0.00,,,0.00,503.0,meteohub,2013-03-31 14:54:00,
2013-03-31 11:01:00,71.1,56.8,30.08,SW,230,2.0,10.0,61,0.00,,,0.00,584.0,meteohub,2013-03-31 15:01:00,
2013-03-31 11:07:00,71.1,56.8,30.08,WSW,255,3.0,10.0,61,0.00,,,0.00,668.0,meteohub,2013-03-31 15:07:00,
2013-03-31 11:13:00,71.1,56.8,30.08,South,169,2.0,10.0,61,0.00,,,0.00,715.0,meteohub,2013-03-31 15:13:00,
2013-03-31 11:19:00,71.6,56.5,30.08,WNW,290,4.0,12.0,59,0.00,,,0.00,737.0,meteohub,2013-03-31 15:19:00,
2013-03-31 11:25:00,72.1,58.5,30.08,SW,234,1.0,12.0,62,0.00,,,0.00,726.0,meteohub,2013-03-31 15:25:00,
2013-03-31 11:32:00,73.0,57.4,30.08,West,278,3.0,11.0,58,0.00,,,0.00,763.0,meteohub,2013-03-31 15:32:00,
2013-03-31 11:37:00,73.8,58.1,30.07,WSW,248,0.0,11.0,58,0.00,,,0.00,777.0,meteohub,2013-03-31 15:37:00,
2013-03-31 11:44:00,73.9,57.7,30.06,SSW,206,2.0,11.0,57,0.00,,,0.00,789.0,meteohub,2013-03-31 15:44:00,
2013-03-31 11:51:00,74.5,57.7,30.07,SSE,160,2.0,9.0,56,0.00,,,0.00,807.0,meteohub,2013-03-31 15:51:00,
2013-03-31 11:57:00,74.7,58.5,30.06,West,277,5.0,9.0,57,0.00,,,0.00,819.0,meteohub,2013-03-31 15:57:00,
2013-03-31 12:02:00,75.4,57.6,30.06,West,276,7.0,11.0,54,0.00,,,0.00,828.0,meteohub,2013-03-31 16:02:00,
2013-03-31 12:07:00,75.4,57.6,30.06,West,271,1.0,11.0,54,0.00,,,0.00,846.0,meteohub,2013-03-31 16:07:00,
2013-03-31 12:12:00,75.6,56.7,30.06,West,277,1.0,11.0,52,0.00,,,0.00,840.0,meteohub,2013-03-31 16:12:00,
2013-03-31 12:19:00,75.0,56.1,30.06,WNW,301,2.0,11.0,52,0.00,,,0.00,728.0,meteohub,2013-03-31 16:19:00,
2013-03-31 12:25:00,75.0,55.6,30.06,NNW,329,2.0,11.0,51,0.00,,,0.00,854.0,meteohub,2013-03-31 16:25:00,
2013-03-31 12:31:00,75.9,56.5,30.06,West,273,3.0,10.0,51,0.00,,,0.00,879.0,meteohub,2013-03-31 16:31:00,
2013-03-31 12:37:00,76.8,57.9,30.05,South,191,1.0,10.0,52,0.00,,,0.00,833.0,meteohub,2013-03-31 16:37:00,
2013-03-31 12:43:00,77.0,57.6,30.05,WSW,251,6.0,10.0,51,0.00,,,0.00,835.0,meteohub,2013-03-31 16:43:00,
2013-03-31 12:50:00,76.6,58.3,30.05,West,278,1.0,11.0,53,0.00,,,0.00,912.0,meteohub,2013-03-31 16:50:00,
2013-03-31 12:56:00,77.4,58.8,30.04,WNW,282,3.0,11.0,53,0.00,,,0.00,912.0,meteohub,2013-03-31 16:56:00,
2013-03-31 13:02:00,77.4,57.2,30.04,West,279,4.0,12.0,50,0.00,,,0.00,925.0,meteohub,2013-03-31 17:02:00,
2013-03-31 13:09:00,77.7,57.6,30.05,SSW,208,0.0,12.0,50,0.00,,,0.00,944.0,meteohub,2013-03-31 17:09:00,
2013-03-31 13:15:00,77.4,57.7,30.05,WSW,253,2.0,12.0,51,0.00,,,0.00,816.0,meteohub,2013-03-31 17:15:00,
2013-03-31 13:21:00,77.7,59.2,30.04,West,263,1.0,7.0,53,0.00,,,0.00,958.0,meteohub,2013-03-31 17:21:00,
2013-03-31 13:27:00,78.1,57.9,30.04,West,273,4.0,7.0,50,0.00,,,0.00,988.0,meteohub,2013-03-31 17:27:00,
2013-03-31 13:32:00,78.1,59.5,30.04,West,276,1.0,7.0,53,0.00,,,0.00,991.0,meteohub,2013-03-31 17:32:00,
2013-03-31 13:37:00,78.1,59.0,30.04,West,275,4.0,10.0,52,0.00,,,0.00,884.0,meteohub,2013-03-31 17:37:00,
2013-03-31 13:42:00,77.4,59.4,30.04,West,271,5.0,10.0,54,0.00,,,0.00,1032.0,meteohub,2013-03-31 17:42:00,
2013-03-31 13:49:00,78.3,59.2,30.03,West,273,5.0,10.0,52,0.00,,,0.00,1009.0,meteohub,2013-03-31 17:49:00,
2013-03-31 13:55:00,76.8,58.5,30.03,SSW,200,2.0,14.0,53,0.00,,,0.00,1092.0,meteohub,2013-03-31 17:55:00,
2013-03-31 14:02:00,78.3,59.7,30.02,WSW,258,2.0,14.0,53,0.00,,,0.00,1018.0,meteohub,2013-03-31 18:02:00,
2013-03-31 14:07:00,77.7,59.2,30.02,WSW,256,0.0,14.0,53,0.00,,,0.00,276.0,meteohub,2013-03-31 18:07:00,
2013-03-31 14:14:00,78.3,59.2,30.01,WNW,288,3.0,10.0,52,0.00,,,0.00,1004.0,meteohub,2013-03-31 18:14:00,
2013-03-31 14:20:00,77.7,58.6,30.00,West,262,5.0,10.0,52,0.00,,,0.00,970.0,meteohub,2013-03-31 18:20:00,
2013-03-31 14:27:00,79.2,59.0,30.00,West,274,3.0,10.0,50,0.00,,,0.00,1014.0,meteohub,2013-03-31 18:27:00,
2013-03-31 14:32:00,79.3,59.0,29.99,SW,219,2.0,10.0,50,0.00,,,0.00,1164.0,meteohub,2013-03-31 18:32:00,
2013-03-31 14:37:00,78.1,57.9,29.99,SW,232,2.0,12.0,50,0.00,,,0.00,253.0,meteohub,2013-03-31 18:37:00,
2013-03-31 14:42:00,77.4,58.3,29.99,WNW,288,3.0,12.0,52,0.00,,,0.00,353.0,meteohub,2013-03-31 18:42:00,
2013-03-31 14:48:00,77.0,57.6,29.99,SSE,155,4.0,12.0,51,0.00,,,0.00,278.0,meteohub,2013-03-31 18:48:00,
2013-03-31 14:55:00,77.2,58.3,29.99,West,273,2.0,11.0,52,0.00,,,0.00,350.0,meteohub,2013-03-31 18:55:00,
2013-03-31 15:01:00,78.6,57.9,29.99,West,261,7.0,11.0,49,0.00,,,0.00,360.0,meteohub,2013-03-31 19:01:00,
2013-03-31 15:07:00,77.9,59.4,29.99,WSW,256,4.0,11.0,53,0.00,,,0.00,554.0,meteohub,2013-03-31 19:07:00,
2013-03-31 15:13:00,78.4,58.3,29.98,SW,236,5.0,13.0,50,0.00,,,0.00,981.0,meteohub,2013-03-31 19:13:00,
2013-03-31 15:20:00,79.9,59.5,29.98,SW,220,3.0,13.0,50,0.00,,,0.00,995.0,meteohub,2013-03-31 19:20:00,
2013-03-31 15:26:00,79.3,58.5,29.98,West,276,2.0,13.0,49,0.00,,,0.00,322.0,meteohub,2013-03-31 19:26:00,
2013-03-31 15:32:00,78.6,59.5,29.98,WSW,244,1.0,13.0,52,0.00,,,0.00,332.0,meteohub,2013-03-31 19:32:00,
2013-03-31 15:37:00,78.6,59.0,29.98,West,274,4.0,13.0,51,0.00,,,0.00,784.0,meteohub,2013-03-31 19:37:00,
2013-03-31 15:45:00,79.2,59.5,29.98,WNW,293,5.0,10.0,51,0.00,,,0.00,763.0,meteohub,2013-03-31 19:45:00,
2013-03-31 15:51:00,79.5,60.4,29.97,West,269,0.0,10.0,52,0.00,,,0.00,840.0,meteohub,2013-03-31 19:51:00,
2013-03-31 15:57:00,79.3,58.5,29.96,WSW,251,3.0,12.0,49,0.00,,,0.00,526.0,meteohub,2013-03-31 19:57:00,
2013-03-31 16:03:00,77.5,59.0,29.97,West,279,1.0,12.0,53,0.00,,,0.00,181.0,meteohub,2013-03-31 20:03:00,
2013-03-31 16:10:00,76.6,58.3,29.96,West,261,2.0,12.0,53,0.00,,,0.00,311.0,meteohub,2013-03-31 20:10:00,
2013-03-31 16:16:00,76.6,57.7,29.96,WSW,245,2.0,7.0,52,0.00,,,0.00,214.0,meteohub,2013-03-31 20:16:00,
2013-03-31 16:22:00,76.5,58.1,29.96,West,279,2.0,7.0,53,0.00,,,0.00,181.0,meteohub,2013-03-31 20:22:00,
2013-03-31 16:29:00,76.3,59.0,29.96,North,9,3.0,7.0,55,0.00,,,0.00,178.0,meteohub,2013-03-31 20:29:00,
2013-03-31 16:35:00,76.1,58.8,29.96,West,281,4.0,7.0,55,0.00,,,0.00,241.0,meteohub,2013-03-31 20:35:00,
2013-03-31 16:41:00,76.5,58.1,29.96,SW,232,1.0,10.0,53,0.00,,,0.00,359.0,meteohub,2013-03-31 20:41:00,
2013-03-31 16:47:00,76.5,58.1,29.96,West,277,0.0,10.0,53,0.00,,,0.00,230.0,meteohub,2013-03-31 20:47:00,
2013-03-31 16:53:00,76.8,58.5,29.96,South,188,2.0,9.0,53,0.00,,,0.00,244.0,meteohub,2013-03-31 20:53:00,
2013-03-31 17:00:00,78.6,59.0,29.96,SSE,162,3.0,9.0,51,0.00,,,0.00,649.0,meteohub,2013-03-31 21:00:00,
2013-03-31 17:06:00,79.0,58.1,29.95,SSW,195,4.0,9.0,49,0.00,,,0.00,267.0,meteohub,2013-03-31 21:06:00,
2013-03-31 17:12:00,77.5,57.4,29.96,West,271,2.0,11.0,50,0.00,,,0.00,116.0,meteohub,2013-03-31 21:12:00,
2013-03-31 17:17:00,76.8,57.4,29.96,West,271,2.0,11.0,51,0.00,,,0.00,160.0,meteohub,2013-03-31 21:17:00,
2013-03-31 17:22:00,76.6,58.3,29.96,West,273,3.0,11.0,53,0.00,,,0.00,301.0,meteohub,2013-03-31 21:22:00,
2013-03-31 17:27:00,76.6,57.7,29.96,West,274,2.0,11.0,52,0.00,,,0.00,153.0,meteohub,2013-03-31 21:27:00,
2013-03-31 17:34:00,76.8,59.0,29.95,WSW,257,1.0,11.0,54,0.00,,,0.00,223.0,meteohub,2013-03-31 21:34:00,
2013-03-31 17:40:00,77.4,58.3,29.96,West,281,1.0,6.0,52,0.00,,,0.00,241.0,meteohub,2013-03-31 21:40:00,
2013-03-31 17:47:00,77.5,58.5,29.95,WNW,282,3.0,6.0,52,0.00,,,0.00,260.0,meteohub,2013-03-31 21:47:00,
2013-03-31 17:52:00,77.2,58.6,29.95,WSW,257,1.0,6.0,53,0.00,,,0.00,148.0,meteohub,2013-03-31 21:52:00,
2013-03-31 17:57:00,76.6,57.7,29.95,West,274,0.0,10.0,52,0.00,,,0.00,102.0,meteohub,2013-03-31 21:57:00,
2013-03-31 18:02:00,75.9,58.1,29.96,West,272,2.0,10.0,54,0.00,,,0.00,114.0,meteohub,2013-03-31 22:02:00,
2013-03-31 18:07:00,75.6,57.7,29.96,West,274,0.0,10.0,54,0.00,,,0.00,148.0,meteohub,2013-03-31 22:07:00,
2013-03-31 18:12:00,75.4,58.1,29.96,West,280,3.0,10.0,55,0.00,,,0.00,167.0,meteohub,2013-03-31 22:12:00,
2013-03-31 18:17:00,75.4,57.6,29.95,West,269,2.0,4.0,54,0.00,,,0.00,264.0,meteohub,2013-03-31 22:17:00,
2013-03-31 18:24:00,75.9,58.1,29.96,West,268,3.0,4.0,54,0.00,,,0.00,192.0,meteohub,2013-03-31 22:24:00,
2013-03-31 18:30:00,76.1,58.3,29.95,West,272,0.0,4.0,54,0.00,,,0.00,207.0,meteohub,2013-03-31 22:30:00,
2013-03-31 18:37:00,76.3,58.5,29.95,West,277,0.0,6.0,54,0.00,,,0.00,190.0,meteohub,2013-03-31 22:37:00,
2013-03-31 18:42:00,76.3,57.9,29.95,West,281,3.0,6.0,53,0.00,,,0.00,178.0,meteohub,2013-03-31 22:42:00,
2013-03-31 18:47:00,76.3,57.9,29.95,WSW,250,1.0,6.0,53,0.00,,,0.00,149.0,meteohub,2013-03-31 22:47:00,
2013-03-31 18:52:00,76.1,58.3,29.95,WNW,284,4.0,6.0,54,0.00,,,0.00,86.0,meteohub,2013-03-31 22:52:00,
2013-03-31 18:57:00,75.9,58.1,29.96,WSW,242,0.0,10.0,54,0.00,,,0.00,37.0,meteohub,2013-03-31 22:57:00,
2013-03-31 19:05:00,75.6,57.2,29.96,West,264,0.0,10.0,53,0.00,,,0.00,28.0,meteohub,2013-03-31 23:05:00,
2013-03-31 19:11:00,75.0,57.2,29.96,West,259,0.0,10.0,54,0.00,,,0.00,19.0,meteohub,2013-03-31 23:11:00,
2013-03-31 19:17:00,74.7,57.4,29.95,West,259,0.0,6.0,55,0.00,,,0.00,18.0,meteohub,2013-03-31 23:17:00,
2013-03-31 19:23:00,74.1,57.4,29.96,West,259,1.0,5.0,56,0.00,,,0.00,12.0,meteohub,2013-03-31 23:23:00,
2013-03-31 19:30:00,73.6,56.8,29.95,West,261,0.0,5.0,56,0.00,,,0.00,9.0,meteohub,2013-03-31 23:30:00,
2013-03-31 19:36:00,73.0,56.5,29.95,West,261,0.0,5.0,56,0.00,,,0.00,5.0,meteohub,2013-03-31 23:36:00,
2013-03-31 19:42:00,72.7,57.0,29.94,West,261,0.0,2.0,58,0.00,,,0.00,0.0,meteohub,2013-03-31 23:42:00,
2013-03-31 19:49:00,72.1,57.0,29.94,West,261,0.0,2.0,59,0.00,,,0.00,0.0,meteohub,2013-03-31 23:49:00,
2013-03-31 19:55:00,71.8,56.7,29.94,West,261,0.0,1.0,59,0.00,,,0.00,0.0,meteohub,2013-03-31 23:55:00,
2013-03-31 20:01:00,71.2,56.7,29.94,West,261,0.0,1.0,60,0.00,,,0.00,0.0,meteohub,2013-04-01 00:01:00,
2013-03-31 20:07:00,70.7,56.7,29.94,West,261,0.0,1.0,61,0.00,,,0.00,0.0,meteohub,2013-04-01 00:07:00,
2013-03-31 20:12:00,70.2,56.1,29.94,West,261,0.0,0.0,61,0.00,,,0.00,0.0,meteohub,2013-04-01 00:12:00,
2013-03-31 20:17:00,69.6,55.9,29.94,West,261,0.0,0.0,62,0.00,,,0.00,0.0,meteohub,2013-04-01 00:17:00,
2013-03-31 20:22:00,69.3,56.1,29.94,West,261,0.0,0.0,63,0.00,,,0.00,0.0,meteohub,2013-04-01 00:22:00,
2013-03-31 20:27:00,68.7,55.6,29.94,West,261,0.0,0.0,63,0.00,,,0.00,0.0,meteohub,2013-04-01 00:27:00,
2013-03-31 20:32:00,68.4,55.8,29.94,West,261,0.0,0.0,64,0.00,,,0.00,0.0,meteohub,2013-04-01 00:32:00,
2013-03-31 20:37:00,67.8,55.6,29.94,West,261,0.0,0.0,65,0.00,,,0.00,0.0,meteohub,2013-04-01 00:37:00,
2013-03-31 20:45:00,67.1,55.4,29.94,West,261,0.0,0.0,66,0.00,,,0.00,0.0,meteohub,2013-04-01 00:45:00,
2013-03-31 20:51:00,66.7,55.4,29.94,West,261,0.0,0.0,67,0.00,,,0.00,0.0,meteohub,2013-04-01 00:51:00,
2013-03-31 20:57:00,66.4,55.6,29.95,West,261,0.0,0.0,68,0.00,,,0.00,0.0,meteohub,2013-04-01 00:57:00,
2013-03-31 21:02:00,65.8,55.0,29.96,West,261,0.0,0.0,68,0.00,,,0.00,0.0,meteohub,2013-04-01 01:02:00,
2013-03-31 21:07:00,65.7,55.2,29.96,West,261,0.0,0.0,69,0.00,,,0.00,0.0,meteohub,2013-04-01 01:07:00,
2013-03-31 21:13:00,65.1,55.0,29.96,West,261,0.0,0.0,70,0.00,,,0.00,0.0,meteohub,2013-04-01 01:13:00,
2013-03-31 21:19:00,64.8,54.7,29.96,West,261,0.0,1.0,70,0.00,,,0.00,0.0,meteohub,2013-04-01 01:19:00,
2013-03-31 21:25:00,64.4,54.9,29.96,West,261,0.0,0.0,71,0.00,,,0.00,0.0,meteohub,2013-04-01 01:25:00,
2013-03-31 21:31:00,64.0,54.5,29.96,West,261,0.0,0.0,71,0.00,,,0.00,0.0,meteohub,2013-04-01 01:31:00,
2013-03-31 21:37:00,63.9,54.3,29.96,West,261,0.0,0.0,71,0.00,,,0.00,0.0,meteohub,2013-04-01 01:37:00,
2013-03-31 21:42:00,63.5,54.0,29.96,West,261,0.0,0.0,71,0.00,,,0.00,0.0,meteohub,2013-04-01 01:42:00,
2013-03-31 21:47:00,63.1,54.0,29.96,West,261,0.0,0.0,72,0.00,,,0.00,0.0,meteohub,2013-04-01 01:47:00,
2013-03-31 21:52:00,63.0,54.1,29.97,West,261,0.0,0.0,73,0.00,,,0.00,0.0,meteohub,2013-04-01 01:52:00,
2013-03-31 21:57:00,62.8,54.0,29.97,West,261,0.0,0.0,73,0.00,,,0.00,0.0,meteohub,2013-04-01 01:57:00,
2013-03-31 22:02:00,62.4,53.6,29.97,West,261,0.0,0.0,73,0.00,,,0.00,0.0,meteohub,2013-04-01 02:02:00,
2013-03-31 22:08:00,62.2,53.8,29.97,West,261,0.0,0.0,74,0.00,,,0.00,0.0,meteohub,2013-04-01 02:08:00,
2013-03-31 22:15:00,62.1,53.6,29.98,West,261,0.0,0.0,74,0.00,,,0.00,0.0,meteohub,2013-04-01 02:15:00,
2013-03-31 22:21:00,61.7,53.8,29.98,West,261,0.0,0.0,75,0.00,,,0.00,0.0,meteohub,2013-04-01 02:21:00,
2013-03-31 22:27:00,61.7,54.1,29.98,WNW,284,1.0,1.0,76,0.00,,,0.00,0.0,meteohub,2013-04-01 02:27:00,
2013-03-31 22:32:00,61.9,54.3,29.98,WNW,284,1.0,4.0,76,0.00,,,0.00,0.0,meteohub,2013-04-01 02:32:00,
2013-03-31 22:39:00,62.2,54.1,29.98,WNW,284,2.0,4.0,75,0.00,,,0.00,0.0,meteohub,2013-04-01 02:39:00,
2013-03-31 22:46:00,62.8,54.7,29.98,WNW,286,1.0,3.0,75,0.00,,,0.00,0.0,meteohub,2013-04-01 02:46:00,
2013-03-31 22:52:00,63.3,54.9,29.97,WSW,246,1.0,7.0,74,0.00,,,0.00,0.0,meteohub,2013-04-01 02:52:00,
2013-03-31 22:57:00,63.7,55.2,29.98,West,276,0.0,7.0,74,0.00,,,0.00,0.0,meteohub,2013-04-01 02:57:00,
2013-03-31 23:04:00,64.0,55.6,29.98,West,277,0.0,7.0,74,0.00,,,0.00,0.0,meteohub,2013-04-01 03:04:00,
2013-03-31 23:10:00,64.0,55.2,29.98,West,277,0.0,7.0,73,0.00,,,0.00,0.0,meteohub,2013-04-01 03:10:00,
2013-03-31 23:16:00,64.0,55.2,29.98,West,277,0.0,2.0,73,0.00,,,0.00,0.0,meteohub,2013-04-01 03:16:00,
2013-03-31 23:22:00,63.9,55.4,29.98,West,276,0.0,1.0,74,0.00,,,0.00,0.0,meteohub,2013-04-01 03:22:00,
2013-03-31 23:27:00,63.9,55.4,29.98,West,276,0.0,1.0,74,0.00,,,0.00,0.0,meteohub,2013-04-01 03:27:00,
2013-03-31 23:32:00,63.7,55.2,29.98,West,276,0.0,2.0,74,0.00,,,0.00,0.0,meteohub,2013-04-01 03:32:00,
2013-03-31 23:38:00,63.3,55.2,29.98,West,276,0.0,2.0,75,0.00,,,0.00,0.0,meteohub,2013-04-01 03:38:00,
2013-03-31 23:44:00,63.1,55.4,29.98,West,276,0.0,1.0,76,0.00,,,0.00,0.0,meteohub,2013-04-01 03:44:00,
2013-03-31 23:50:00,63.0,55.6,29.98,West,275,0.0,1.0,77,0.00,,,0.00,0.0,meteohub,2013-04-01 03:50:00,
2013-03-31 23:56:00,62.8,55.8,29.97,West,275,1.0,3.0,78,0.00,,,0.00,0.0,meteohub,2013-04-01 03:56:00,